Change the Weather History Date:

Wednesday, April 30, 2014

  Actual Average (KPVU) Record (KPVU)
Temperature  
Mean Temperature 42 °F -  
Max Temperature 59 °F 62 °F 83 °F (1987)
Min Temperature 26 °F 39 °F 28 °F (2011)
Degree Days  
Heating Degree Days 22    
Moisture  
Dew Point 19 °F    
Average Humidity 45    
Maximum Humidity 80    
Minimum Humidity 17    
Precipitation  
Precipitation 0.00 in - - ()
Sea Level Pressure  
Sea Level Pressure 30.39 in    
Wind  
Wind Speed 4 mph (NE)    
Max Wind Speed 20 mph    
Max Gust Speed 26 mph    
Visibility 10 miles    
Events Thunderstorm    
Averages and records for this station are not official NWS values.
T = Trace of Precipitation, MM = Missing Value Source: NWS Daily Summary

Daily Weather History Graph

Daily Weather History Graph

Search for Another Location

Airport or City:

Trip Planner

Search our weather history database for the weather conditions in past years. The results will help you decide how hot, cold, wet, or windy it might be!

Date:

Astronomy

Apr. 30, 2014 Rise Set
Actual Time 6:25 AM MDT 8:20 PM MDT
Civil Twilight 5:56 AM MDT 8:50 PM MDT
Nautical Twilight 5:20 AM MDT 9:26 PM MDT
Astronomical Twilight 4:41 AM MDT 10:05 PM MDT
Moon 7:29 AM MDT (4/30) 10:02 PM MDT (4/30)
Length of Visible Light 14h 53m
Length of Day
13h 54m
Waxing Crescent, 3% of the Moon is Illuminated
Apr 30
Waxing Crescent
May 6
First Quarter
May 14
Full
May 21
Last Quarter
May 28
New

Hourly Weather History & Observations

Time (MDT) Temp. Windchill Dew Point Humidity Pressure Visibility Wind Dir Wind Speed Gust Speed Precip Events Conditions
12:15 AM 33.8 °F - 21.2 °F 60% 30.45 in 10.0 mi Calm Calm - N/A   Clear
12:35 AM 32.0 °F - 21.2 °F 64% 30.45 in 10.0 mi Calm Calm - N/A   Clear
12:55 AM 32.0 °F - 21.2 °F 64% 30.45 in 10.0 mi Calm Calm - N/A   Clear
1:15 AM 32.0 °F - 21.2 °F 64% 30.45 in 10.0 mi Calm Calm - N/A   Clear
1:35 AM 30.2 °F - 21.2 °F 69% 30.45 in 10.0 mi Calm Calm - N/A   Clear
1:55 AM 32.0 °F - 21.2 °F 64% 30.45 in 10.0 mi Calm Calm - N/A   Clear
2:15 AM 28.4 °F - 21.2 °F 74% 30.45 in 10.0 mi Calm Calm - N/A   Clear
2:35 AM 28.4 °F 24.6 °F 21.2 °F 74% 30.45 in 10.0 mi ESE 3.5 mph - N/A Thunderstorm Thunderstorm
2:55 AM 28.4 °F 22.2 °F 21.2 °F 74% 30.44 in 10.0 mi ESE 5.8 mph - N/A   Clear
3:15 AM 28.4 °F - 21.2 °F 74% 30.44 in 10.0 mi Calm Calm - N/A   Clear
3:35 AM 28.4 °F 22.2 °F 21.2 °F 74% 30.43 in 10.0 mi SE 5.8 mph - N/A   Clear
3:55 AM 30.2 °F - 21.2 °F 69% 30.44 in 10.0 mi Calm Calm - N/A   Clear
4:15 AM 32.0 °F - 19.4 °F 60% 30.45 in 10.0 mi Calm Calm - N/A   Clear
4:35 AM 28.4 °F - 19.4 °F 69% 30.45 in 10.0 mi Calm Calm - N/A   Clear
4:55 AM 28.4 °F - 21.2 °F 74% 30.43 in 10.0 mi Calm Calm - N/A   Clear
5:15 AM 28.4 °F - 21.2 °F 74% 30.43 in 10.0 mi Calm Calm - N/A   Clear
5:35 AM 26.6 °F - 19.4 °F 74% 30.44 in 10.0 mi Calm Calm - N/A   Clear
5:55 AM 26.6 °F 22.6 °F 21.2 °F 80% 30.44 in 10.0 mi East 3.5 mph - N/A   Clear
6:15 AM 28.4 °F - 21.2 °F 74% 30.45 in 10.0 mi Calm Calm - N/A   Clear
6:35 AM 28.4 °F - 21.2 °F 74% 30.45 in 10.0 mi Calm Calm - N/A   Clear
6:55 AM 30.2 °F - 21.2 °F 69% 30.45 in 10.0 mi Calm Calm - N/A   Clear
7:15 AM 30.2 °F - 21.2 °F 69% 30.45 in 10.0 mi Calm Calm - N/A   Clear
7:35 AM 32.0 °F - 23.0 °F 69% 30.46 in 10.0 mi Calm Calm - N/A   Clear
7:55 AM 32.0 °F - 26.6 °F 80% 30.46 in 10.0 mi Calm Calm - N/A   Clear
8:15 AM 33.8 °F - 26.6 °F 75% 30.47 in 10.0 mi Calm Calm - N/A Thunderstorm Thunderstorm
8:35 AM 35.6 °F - 26.6 °F 70% 30.46 in 10.0 mi Calm Calm - N/A   Clear
8:55 AM 39.2 °F - 24.8 °F 56% 30.46 in 10.0 mi Calm Calm - N/A   Clear
9:15 AM 41.0 °F 38.0 °F 23.0 °F 49% 30.46 in 10.0 mi NE 4.6 mph - N/A   Clear
9:35 AM 42.8 °F 39.3 °F 21.2 °F 42% 30.45 in 10.0 mi NNE 5.8 mph - N/A   Clear
9:55 AM 44.6 °F 38.8 °F 21.2 °F 39% 30.44 in 10.0 mi NNE 11.5 mph - N/A   Clear
10:15 AM 46.4 °F 41.9 °F 21.2 °F 37% 30.44 in 10.0 mi North 9.2 mph - N/A   Clear
10:35 AM 46.4 °F 40.7 °F 19.4 °F 34% 30.43 in 10.0 mi North 12.7 mph 17.3 mph N/A   Clear
10:55 AM 46.4 °F 41.5 °F 21.2 °F 37% 30.43 in 10.0 mi North 10.4 mph 16.1 mph N/A   Clear
11:15 AM 48.2 °F - 19.4 °F 32% 30.43 in 10.0 mi North 12.7 mph 16.1 mph N/A   Clear
11:35 AM 50.0 °F - 19.4 °F 30% 30.42 in 10.0 mi North 10.4 mph 17.3 mph N/A   Clear
11:55 AM 50.0 °F - 21.2 °F 32% 30.42 in 10.0 mi North 11.5 mph 20.7 mph N/A   Clear
12:15 PM 50.0 °F - 19.4 °F 30% 30.41 in 10.0 mi North 4.6 mph 19.6 mph N/A   Clear
12:35 PM 51.8 °F - 19.4 °F 28% 30.40 in 10.0 mi NNW 9.2 mph 20.7 mph N/A   Clear
12:55 PM 51.8 °F - 21.2 °F 30% 30.40 in 10.0 mi North 8.1 mph 21.9 mph N/A   Clear
1:15 PM 53.6 °F - 19.4 °F 26% 30.39 in 10.0 mi North 9.2 mph 18.4 mph N/A   Clear
1:55 PM 53.6 °F - 19.4 °F 26% 30.37 in 10.0 mi North 16.1 mph 26.5 mph N/A   Scattered Clouds
2:15 PM 53.6 °F - 17.6 °F 24% 30.37 in 10.0 mi NNW 13.8 mph 18.4 mph N/A   Scattered Clouds
2:35 PM 53.6 °F - 15.8 °F 22% 30.36 in 10.0 mi North 13.8 mph 20.7 mph N/A   Mostly Cloudy
2:55 PM 53.6 °F - 15.8 °F 22% 30.35 in 10.0 mi NE 9.2 mph 19.6 mph N/A   Mostly Cloudy
3:15 PM 57.2 °F - 15.8 °F 20% 30.34 in 10.0 mi ENE 15.0 mph 24.2 mph N/A   Scattered Clouds
3:35 PM 55.4 °F - 14.0 °F 20% 30.34 in 10.0 mi NE 19.6 mph 24.2 mph N/A   Mostly Cloudy
3:55 PM 55.4 °F - 14.0 °F 20% 30.32 in 10.0 mi NE 11.5 mph 25.3 mph N/A   Scattered Clouds
4:15 PM 59.0 °F - 17.6 °F 20% 30.32 in 10.0 mi NNE 12.7 mph - N/A   Scattered Clouds
4:35 PM 59.0 °F - 17.6 °F 20% 30.31 in 10.0 mi North 12.7 mph 17.3 mph N/A   Scattered Clouds
4:55 PM 55.4 °F - 17.6 °F 23% 30.31 in 10.0 mi NNE 13.8 mph 24.2 mph N/A   Scattered Clouds
5:15 PM 55.4 °F - 14.0 °F 20% 30.31 in 10.0 mi NE 17.3 mph 20.7 mph N/A   Mostly Cloudy
5:35 PM 59.0 °F - 15.8 °F 19% 30.31 in 10.0 mi North 16.1 mph 21.9 mph N/A   Mostly Cloudy
5:55 PM 59.0 °F - 14.0 °F 17% 30.30 in 10.0 mi NNE 12.7 mph 20.7 mph N/A   Scattered Clouds
6:15 PM 55.4 °F - 12.2 °F 18% 30.30 in 10.0 mi NNE 11.5 mph 23.0 mph N/A   Clear
6:35 PM 57.2 °F - 12.2 °F 17% 30.30 in 10.0 mi NNE 12.7 mph 20.7 mph N/A   Scattered Clouds
6:55 PM 55.4 °F - 12.2 °F 18% 30.29 in 10.0 mi North 15.0 mph 18.4 mph N/A   Scattered Clouds
7:15 PM 55.4 °F - 14.0 °F 20% 30.29 in 10.0 mi North 11.5 mph - N/A   Scattered Clouds
7:35 PM 53.6 °F - 15.8 °F 22% 30.29 in 10.0 mi North 8.1 mph - N/A   Clear
7:55 PM 51.8 °F - 15.8 °F 24% 30.30 in 10.0 mi North 6.9 mph - N/A   Clear
8:15 PM 48.2 °F - 15.8 °F 27% 30.30 in 10.0 mi North 6.9 mph - N/A   Clear
8:55 PM 42.8 °F 41.1 °F 19.4 °F 39% 30.31 in 10.0 mi East 3.5 mph - N/A   Clear
9:15 PM 42.8 °F 39.3 °F 17.6 °F 36% 30.32 in 10.0 mi ESE 5.8 mph - N/A   Clear
9:35 PM 41.0 °F 36.4 °F 15.8 °F 36% 30.34 in 10.0 mi East 6.9 mph - N/A   Clear
9:55 PM 44.6 °F 41.4 °F 12.2 °F 27% 30.35 in 10.0 mi East 5.8 mph - N/A   Clear
10:15 PM 42.8 °F 38.6 °F 14.0 °F 31% 30.34 in 10.0 mi East 6.9 mph - N/A   Clear
10:35 PM 37.4 °F 31.4 °F 17.6 °F 45% 30.35 in 10.0 mi East 8.1 mph - N/A   Clear
10:55 PM 37.4 °F 33.8 °F 15.8 °F 41% 30.35 in 10.0 mi East 4.6 mph - N/A   Clear
11:15 PM 37.4 °F 33.8 °F 17.6 °F 45% 30.35 in 10.0 mi East 4.6 mph - N/A   Clear
11:35 PM 37.4 °F 31.4 °F 17.6 °F 45% 30.36 in 10.0 mi ESE 8.1 mph - N/A   Clear